Montrose, CO

2:07 AM MDT on September 21, 2017 (GMT -0600)
Montrose Regional

Weather History for KMTJ - November, 2014

Change the Weather History Date:

Saturday, November 22, 2014

  Actual Average Record
Temperature  
Mean Temperature 37 °F 34 °F  
Max Temperature 54 °F 46 °F 64 °F (1998)
Min Temperature 20 °F 23 °F 12 °F (2007)
Degree Days  
Heating Degree Days 28 31  
Month to date heating degree days 600 570  
Since 1 July heating degree days 1022 1161  
Cooling Degree Days 0 0  
Month to date cooling degree days 0 0  
Year to date cooling degree days 782 643  
Moisture  
Dew Point 22 °F    
Average Humidity 56    
Maximum Humidity 84    
Minimum Humidity 28    
Precipitation  
Precipitation T in 0.02 in 0.12 in (2013)
Month to date precipitation 0.17 0.62  
Year to date precipitation 8.61 10.46  
Sea Level Pressure  
Sea Level Pressure 29.94 in    
Wind  
Wind Speed 6 mph (South)    
Max Wind Speed 18 mph    
Max Gust Speed 27 mph    
Visibility 10 miles    
Events Rain    
T = Trace of Precipitation, MM = Missing Value Source: NWS Daily Summary

Daily Weather History Graph

Daily Weather History Graph

Search for Another Location

Airport or City:

Trip Planner

Search our weather history database for the weather conditions in past years. The results will help you decide how hot, cold, wet, or windy it might be!

Date:

Astronomy

Nov. 22, 2014 Rise Set
Actual Time 7:00 AM MST 4:54 PM MST
Civil Twilight 6:32 AM MST 5:22 PM MST
Nautical Twilight 5:59 AM MST 5:55 PM MST
Astronomical Twilight 5:28 AM MST 6:26 PM MST
Moon 7:00 AM MST (11/22) 5:27 PM MST (11/22)
Length of Visible Light 10h 50m
Length of Day
9h 53m
New Moon, 0% of the Moon is Illuminated
Nov 22
New Moon
Nov 29
First Quarter
Dec 6
Full
Dec 14
Last Quarter
Dec 21
New

Hourly Weather History & Observations

Time (MST) Temp. Windchill Dew Point Humidity Pressure Visibility Wind Dir Wind Speed Gust Speed Precip Events Conditions
12:53 AM 24.1 °F 16.0 °F 18.0 °F 77% 30.09 in 10.0 mi SE 6.9 mph - N/A   Clear
1:53 AM 25.0 °F 18.1 °F 18.0 °F 75% 30.09 in 10.0 mi SSE 5.8 mph - N/A   Clear
2:53 AM 21.9 °F 12.5 °F 17.1 °F 82% 30.10 in 10.0 mi SSE 8.1 mph - N/A   Clear
3:53 AM 23.0 °F 14.7 °F 17.1 °F 78% 30.10 in 10.0 mi SE 6.9 mph - N/A   Clear
4:53 AM 23.0 °F 15.8 °F 17.1 °F 78% 30.10 in 10.0 mi South 5.8 mph - N/A   Clear
5:53 AM 19.9 °F 11.1 °F 15.1 °F 81% 30.14 in 10.0 mi SSE 6.9 mph - N/A   Clear
6:53 AM 21.9 °F 13.4 °F 17.1 °F 82% 30.15 in 10.0 mi SSE 6.9 mph - N/A   Clear
7:53 AM 26.1 °F 20.5 °F 18.0 °F 71% 30.15 in 10.0 mi South 4.6 mph - N/A   Clear
8:53 AM 34.0 °F 29.8 °F 21.0 °F 59% 30.10 in 10.0 mi SSE 4.6 mph - N/A   Clear
9:53 AM 39.9 °F 37.8 °F 21.9 °F 49% 30.02 in 10.0 mi South 3.5 mph - N/A   Clear
10:53 AM 44.1 °F 39.0 °F 21.9 °F 42% 29.98 in 10.0 mi NNW 9.2 mph - N/A   Clear
11:53 AM 46.9 °F - 21.0 °F 36% 29.92 in 10.0 mi Calm Calm - N/A   Clear
12:53 PM 53.1 °F - 21.0 °F 29% 29.86 in 10.0 mi Calm Calm - N/A   Clear
1:53 PM 52.0 °F - 21.0 °F 30% 29.83 in 10.0 mi NNE 4.6 mph - N/A   Clear
2:53 PM 52.0 °F - 19.9 °F 28% 29.83 in 10.0 mi WNW 5.8 mph - N/A   Overcast
3:53 PM 51.1 °F - 19.0 °F 28% 29.83 in 10.0 mi WSW 9.2 mph - N/A   Overcast
4:53 PM 45.0 °F 40.6 °F 23.0 °F 42% 29.88 in 10.0 mi North 8.1 mph - 0.00 in Rain Light Rain
5:53 PM 43.0 °F 39.5 °F 25.0 °F 49% 29.84 in 10.0 mi East 5.8 mph - 0.00 in   Overcast
6:53 PM 41.0 °F 36.4 °F 26.1 °F 55% 29.83 in 10.0 mi WNW 6.9 mph - N/A   Mostly Cloudy
7:53 PM 39.9 °F 35.8 °F 28.0 °F 63% 29.80 in 10.0 mi West 5.8 mph - N/A   Overcast
8:53 PM 39.0 °F 34.8 °F 30.0 °F 70% 29.76 in 10.0 mi ENE 5.8 mph - N/A   Overcast
9:53 PM 37.9 °F 35.5 °F 28.9 °F 70% 29.74 in 10.0 mi West 3.5 mph - N/A   Overcast
10:53 PM 39.0 °F 36.8 °F 28.9 °F 67% 29.73 in 10.0 mi SE 3.5 mph - N/A   Overcast
11:53 PM 39.9 °F 31.8 °F 32.0 °F 73% 29.72 in 10.0 mi NNW 15.0 mph - 0.00 in Rain Light Rain